Regional Weather Roundup
Issued by NWS

Home | Current Version | Previous Version | Text Only | Print | Product List | Glossary On
Versions: 1 2 3 4 5 6 7 8 9 10 11 12 13 14 15 16 17 18 19 20 21 22 23 24 25 26 27 28 29 30 31 32 33 34 35 36 37 38 39 40 41 42 43 44 45 46 47 48 49 50
000
ASPQ40 PGUM 181712
RWRPQ
WEATHER ROUNDUP FOR THE MARIANAS AND MICRONESIA
NATIONAL WEATHER SERVICE TIYAN GU
300 AM CHST FRI SEP 19 2014

GUZ001>004-181800-
MARIANA ISLANDS-

CITY           SKY/WX    TMP DP  RH WIND       PRES   REMARKS
GUAM AIRPORT   PTCLDY    79  75  89 NW8       29.89F FOG
ANDERSEN AFB   NOT AVBL
ROTA AIRPORT   NOT AVBL
TINIAN AP      NOT AVBL
SAIPAN AP      CLEAR     82  75  78 N8        29.87S

$$

PMZ161-181800-
REPUBLIC OF PALAU-

CITY           SKY/WX    TMP DP  RH WIND       PRES   REMARKS
KOROR AP       PTCLDY    77  75  94 CALM      29.89F
KOROR WSO      MOCLDY    81  77  89 CALM      29.87F

$$

PMZ171>174-181800-
FEDERATED STATES OF MICRONESIA-

CITY           SKY/WX    TMP DP  RH WIND       PRES   REMARKS
YAP AIRPORT    MOCLDY    77  73  88 CALM      29.85F
CHUUK AP       CLOUDY    82  79  89 VRB3      29.77S HX  93
POHNPEI AP     NOT AVBL
POHNPEI WSO    PTCLDY    75  73  94 E6        29.82S
KOSRAE AP      NOT AVBL

$$

PMZ181-181800-
REPUBLIC OF THE MARSHALL ISLANDS-

CITY           SKY/WX    TMP DP  RH WIND       PRES   REMARKS
KWAJALEIN AP   PTCLDY    81  73  78 E6        29.79R
MAJURO AP      NOT AVBL
MAJURO WSO     PTCLDY    81  77  89 CALM      29.77S

$$




USA.gov is the U.S. government's official web portal to all federal, state and local government web resources and services.